Location: Unspecified
(0.0000°N, 0.0000°E)
Time: 21:42:37
(UTC+00:00)

LilacSat-2 - Visible Passes

Search period start: 21 January 2022 00:00
Search period end: 31 January 2022 00:00
Orbit: 510 x 532 km, 97.5° (Epoch: 21 January)

Date Brightness Start Highest point End Pass type
(mag) Time Alt. Az. Time Alt. Az. Time Alt. Az.
22 Jan ? 05:40:35 10° N 05:44:12 53° W 05:47:51 10° SSW visible
23 Jan ? 05:27:24 10° NNE 05:31:07 89° E 05:34:52 10° S visible
24 Jan ? 05:14:25 10° NNE 05:18:01 52° E 05:21:41 10° S visible
25 Jan ? 05:01:38 10° NE 05:04:56 31° ESE 05:08:17 10° SSE visible
26 Jan ? 04:49:08 10° NE 04:51:51 19° ESE 04:54:36 10° SSE visible
27 Jan ? 04:37:13 10° ENE 04:38:46 12° ESE 04:40:20 10° SE visible
29 Jan ? 05:42:51 10° N 05:46:27 48° WNW 05:50:05 10° SSW visible
30 Jan ? 05:29:37 10° N 05:33:21 84° WNW 05:37:07 10° SSW visible
